Regional Weather Roundup
Issued by NWS Sterling, VA

Home | Current Version | Previous Version | Graphics & Text | Print | Product List | Glossary On
Versions: 1 2 3 4 5 6 7 8 9 10 11 12 13 14 15 16 17 18 19 20 21 22 23 24 25 26 27 28 29 30 31 32 33 34 35 36 37 38 39 40 41 42 43 44 45 46 47 48 49 50
327
ASUS41 KLWX 240710
RWRLWX

REGIONAL WEATHER ROUNDUP
NATIONAL WEATHER SERVICE BALTIMORE MD/WASHINGTON DC
300 AM EDT SUN SEP 24 2017

Note: "FAIR" indicates few or no clouds below 12,000 feet
with no significant weather and/or obstructions to visibility.
 TC=TEMPERATURE CELSIUS

 * =Non NWS site. Station does not report precipitation (e.g. rain,
    snow, etc.), thunder, or fog.

DCZ001-MDZ009-015-VAZ040>042-051-053>054-240800-
WASHINGTON METRO

CITY           SKY/WX    TMP DP  RH WIND       PRES   REMARKS
WASHINGTON NAT MOCLDY    70  63  78 CALM      30.07S
DULLES         CLEAR     61  61 100 CALM      30.08S
ANDREWS AFB    CLEAR     63  62  96 CALM      30.05S
FT BELVOIR     CLEAR     62  60  94 CALM      30.06S
QUANTICO         N/A     66  64  93 NW8       30.07S
COLLEGE PARK*  CLEAR     61  60  97 CALM      30.06S
LEESBURG*      CLEAR     63  63 100 CALM      30.09S
MANASSAS*      CLEAR     57  56  96 CALM      30.08S
GAITHERSBURG*  CLEAR     60  59  96 CALM      30.09S

$$

MDZ006>007-011-014-240800-
BALTIMORE METRO

CITY           SKY/WX    TMP DP  RH WIND       PRES   REMARKS
BWI AIRPORT    PTCLDY    63  60  90 CALM      30.05S
MD SCIENCE CTR   N/A     77  57  50 MISG      30.05S
MARTIN STATE   CLEAR     66  63  88 CALM      30.06S
ANNAPOLIS      CLEAR     72  69  90 NW6       30.04S
FORT MEADE*    CLEAR     59  57  94 CALM      30.08S

$$

MDZ012-015-019>023-240800-
MARYLAND EASTERN SHORE

CITY           SKY/WX    TMP DP  RH WIND       PRES   REMARKS
OCEAN CITY     CLEAR     66  66 100 W3        30.04S
SALISBURY      FOG       64  64 100 CALM      30.03F VSB 1
CAMBRIDGE*     CLEAR     63  61  94 CALM      30.04S
EASTON*        CLEAR     66  64  93 CALM      30.08S

$$

MDZ017>025-240800-
SOUTHERN MARYLAND

CITY           SKY/WX    TMP DP  RH WIND       PRES   REMARKS
PATUXENT RIVER CLEAR     62  62 100 W6        30.04S
ST INIGOES     CLEAR     62  61  96 CALM      30.03F
LEONARDTOWN*   CLEAR     61  59  94 CALM      30.06S

$$

MDZ003>005-240800-
NORTH CENTRAL MARYLAND

CITY           SKY/WX    TMP DP  RH WIND       PRES   REMARKS
FREDERICK*     CLEAR     61  61 100 CALM      30.11S
HAGERSTOWN APT CLEAR     66  57  72 CALM      30.10S
WESTMINSTER*   CLEAR     64  59  82 CALM      30.10S

$$

MDZ501>502-240800-
WESTERN MARYLAND

CITY           SKY/WX    TMP DP  RH WIND       PRES   REMARKS
OAKLAND*       CLEAR     66  50  55 E3        30.20R
CUMBERLAND*    CLEAR     61  59  94 CALM      30.18R

$$

VAZ025>031-240800-
SHENANDOAH VALLEY

CITY           SKY/WX    TMP DP  RH WIND       PRES   REMARKS
WINCHESTER*    CLEAR     55  54  94 CALM      30.10S
FRONT ROYAL*   CLEAR     59  54  82 CALM      30.10S
LURAY*         CLEAR     57  54  88 CALM      30.13S
NEW MARKET*    CLOUDY    53  50  90 CALM      30.12S
STAUNTON*      CLEAR     53  52  97 CALM      30.16S
WAYNESBORO*    PTCLDY    56  56 100 SW3       30.15S

$$

WVZ021-048>050-054>055-240800-
EASTERN WEST VIRGINIA PANHANDLE

CITY           SKY/WX    TMP DP  RH WIND       PRES   REMARKS
MARTINSBURG    CLEAR     58  55  90 CALM      30.10R
PETERSBURG*    CLEAR     56  54  93 CALM      30.15S

$$

VAZ036>039-050-240800-
CENTRAL FOOTHILLS

CITY           SKY/WX    TMP DP  RH WIND       PRES   REMARKS
CHARLOTTESVILL PTCLDY    61  59  93 CALM      30.09F
CULPEPER*      CLEAR     57  56  97 CALM      30.09S
ORANGE*        CLEAR     57  55  94 CALM      30.08F
GORDONSVILLE*  CLEAR     58  57  99 CALM      30.08S
WARRENTON*     FOG       55  52  90 CALM      30.07F VSB 3/4

$$

VAZ055>057-240800-
NORTH AND CENTRAL PIEDMONT

CITY           SKY/WX    TMP DP  RH WIND       PRES   REMARKS
FREDERICKSBRG* PTCLDY    62  62 100 CALM      30.06S
STAFFORD*      CLEAR     58  58 100 CALM      30.10F

$$

NCZ024-NYZ072-PAZ021-071-VAZ022-071-240800-
OTHER REGIONAL OBSERVATIONS

CITY           SKY/WX    TMP DP  RH WIND       PRES   REMARKS
NEW YORK CITY  CLEAR     72  60  66 CALM      30.07S
PHILADELPHIA   CLEAR     71  60  68 N6        30.04S
PITTSBURGH     CLEAR     65  59  81 CALM      30.14S
ROANOKE        PTCLDY    62  57  83 W5        30.15R
RICHMOND       PTCLDY    67  64  90 CALM      30.06S
RALEIGH        PTCLDY    67  64  90 CALM      30.07S

$$

ANZ530>537-240800-
MARINE OBSERVATIONS

STATION/POSITION TIME  TEMP    WIND        PRES
                       AIR SEA DIR/SP/G
                 (UTC) (F)     (DEG/KT/KT) (MB)
THOMAS PT LIGHT  0700   72 76  320/  6/  6   N/A
BALT KEY BRIDGE  0642   74     280/  5/  6 1017.5R
COVE POINT       0642   74     320/  4/  5 1017.8F
LEWISETTA        0642   69 77  270/  4/  4 1017.2F
SOLOMONS ISLAND  0642   70 76  280/  3/  4 1016.9F
PINEY POINT      0642          350/  4/  5   N/A

$$





USA.gov is the U.S. government's official web portal to all federal, state and local government web resources and services.